カタログに戻る

STARLINK-3772

運用中通信VLEO
NORAD 52290·PAYLOAD·🇺🇸 United States

打ち上げ Apr 21, 2022 から Cape Canaveral Space Force Station

Loading…

次のパス (今後24時間)

TLE

最新Source: CelesTrak SupGP

元期: Sep 15, 2026, 02:12 UTC

1 52290C 22041AF  26258.09215278  .00044167  00000+0  13067-2 0  2582
2 52290  53.1580 316.7608 0001351  96.3113 160.1970 15.34325923    18

AllMySatでSTARLINK-3772をリアルタイム追跡

Download on the App Store